Weather in Verkhnyaya Yakushka

Russia / Ulyanovsk Oblast     54°07′28″N   49°52′26″E
temp.,
°C
wind,
m/s
gust,
m/s
humid.,
%
clouds,
%
prec.,
mm/h
press.,
hPa
HPBL,
m
3 march, wed
wed301:00−2w349490 0.0 1002117
04:00−5w369794 0.1 1002134
07:00−6w369797 0.2 1002138
10:00−4wnw5109399 0.5 1003528
13:00−4wnw71088100 0.1 1004721
16:00−4wnw6108899 0.2 1005899
19:00−6nw5129199 0.1 1006594
22:00−6wnw4109399 0.2 1008613
4 march, thu
thu401:00−11w469692 0.1 100798
04:00−11sw479681 0.1 100799
07:00−10sw6119490 0.0 1005229
10:00−6sw8139495 0.2 1003600
13:00−2sw91492100 0.3 1000820
16:000wsw101694100 1.7 9981059
19:00+1wsw81587100 0.1 998948
22:000wsw61294100 0.6 1000666
5 march, fri
fri501:00−2w3695100 1.4 1000304
04:00−4w2396100 1.8 100055
07:00−3sse1198100 1.8 100090
10:00−2n2398100 4.0 1000247
13:00−2n4796100 1.6 1000470
16:00−4n6893100 2.6 1003524
19:00−9nnw479097 0.0 1008152
22:00−15nw239349 0.0 101220
6 march, sat
sat601:00−16wnw129221 0.0 101320
04:00−15ssw128959 0.0 101420
07:00−15sse228799 0.0 101420
10:00−12sse248899 0.0 1014148
13:00−9sse2284100 0.0 1012244
16:00−9s128972 0.0 101061
19:00−12ssw23889 0.0 101021
22:00−12w449649 0.2 101173
7 march, sun
sun701:00−12wnw499687 0.1 1011233
04:00−17wnw489890 0.1 1012145
07:00−19w459987 0.0 101478
10:00−17wsw359555 0.0 1015181
13:00−13sw47918 0.0 1014279
16:00−11ssw611866 0.0 1011516
19:00−11ssw81587100 0.0 1009540
22:00−9ssw91690100 0.1 1006747